User: anonymous   Login
Location: Carrer del Canonge
(41.4901°N, 2.2931°E)
Time: 07:46:29
(UTC+00:00)
Language:

Cosmos 1025 Rocket - Orbit

View from above orbital plane
View from above orbital plane
View from above satellite
View from above satellite

Ground track
Ground track

The orbit data is extracted from the following two-line orbital elements,

1 10974U 78067B   20329.76738693 +.00000118 +00000-0 +10260-4 0  9997
2 10974 082.4844 059.0033 0018479 135.5785 224.6918 14.87370520273221
Epoch (UTC): 24 November 2020 18:25:02
Eccentricity: 0.0018479
inclination: 82.4844°
perigee height: 593 km
apogee height: 619 km
right ascension of ascending node: 59.0033°
argument of perigee: 135.5785°
revolutions per day: 14.87370520
mean anomaly at epoch: 224.6918°
orbit number at epoch: 27322

The dashed part of the orbit path shows where the satellite is in the earth's shadow,  

DLR